Satellite-Ground Cal/Val Site Overpasses Predictions

Prediction of Satellite NPP Overpassing Cal/Val Site: Antarctic Dome C

Ground Cal/Val Site Location: Latitude: -75.10, Longitude: 123.35; Satellite-Ground Site NADIR distance within 100 km.

Table of predicted overpasses for the next 14.0 days since TLE Epoch: 1/30/2021
Interval Starting Time Ending Time Minimum Distance Time Minimum Distance (km)
1 01/30/2021 14:41:59 01/30/2021 14:42:24 01/30/2021 14:42:12 51.26
2 01/31/2021 07:43:41 01/31/2021 07:44:01 01/31/2021 07:43:51 71.30
3 02/01/2021 07:24:48 02/01/2021 07:25:16 02/01/2021 07:25:02 36.57
4 02/03/2021 15:07:15 02/03/2021 15:07:23 02/03/2021 15:07:19 95.65
5 02/04/2021 14:48:14 02/04/2021 14:48:43 02/04/2021 14:48:29 15.85
6 02/06/2021 07:31:03 02/06/2021 07:31:33 02/06/2021 07:31:18 0.61
7 02/09/2021 14:54:31 02/09/2021 14:55:00 02/09/2021 14:54:45 20.92
8 02/10/2021 14:35:48 02/10/2021 14:36:03 02/10/2021 14:35:55 86.12
9 02/11/2021 07:37:21 02/11/2021 07:37:48 02/11/2021 07:37:34 36.27
